Van Vleck, TX

10:28 PM CDT on August 24, 2016 (GMT -0500)
Bay City

Weather History for KBYY - February, 2014

Change the Weather History Date:

Monday, February 24, 2014

  Actual Average (KLBX) Record (KLBX)
Temperature  
Mean Temperature 68 °F -  
Max Temperature 73 °F 64 °F 82 °F (2008)
Min Temperature 63 °F 48 °F 35 °F (2015)
Cooling Degree Days 3    
Growing Degree Days 18 (Base 50)    
Moisture  
Dew Point 65 °F    
Average Humidity 95    
Maximum Humidity 99    
Minimum Humidity 83    
Precipitation  
Precipitation 0.00 in - - ()
Sea Level Pressure  
Sea Level Pressure 30.02 in    
Wind  
Wind Speed 5 mph (ENE)    
Max Wind Speed 18 mph    
Max Gust Speed 25 mph    
Visibility 5 miles    
Events Fog , Rain    
Averages and records for this station are not official NWS values.
T = Trace of Precipitation, MM = Missing Value Source: NWS Daily Summary

Daily Weather History Graph

Daily Weather History Graph

Search for Another Location

Airport or City:

Trip Planner

Search our weather history database for the weather conditions in past years. The results will help you decide how hot, cold, wet, or windy it might be!

Date:

Astronomy

Feb. 24, 2014 Rise Set
Actual Time 6:53 AM CST 6:19 PM CST
Civil Twilight 6:29 AM CST 6:43 PM CST
Nautical Twilight 6:02 AM CST 7:11 PM CST
Astronomical Twilight 5:34 AM CST 7:38 PM CST
Moon 2:39 AM CST (2/24) 1:36 PM CST (2/24)
Length of Visible Light 12h 13m
Length of Day
11h 26m
Waning Crescent, 28% of the Moon is Illuminated
Feb 24
Waning Crescent
Mar 1
New
Mar 8
First Quarter
Mar 16
Full
Mar 23
Last Quarter

Hourly Weather History & Observations

Time (CST) Temp. Dew Point Humidity Pressure Visibility Wind Dir Wind Speed Gust Speed Precip Events Conditions
12:15 AM 64.6 °F 64.0 °F 98% 30.00 in 0.5 mi NNW 3.5 mph - N/A Fog Fog
12:35 AM 63.9 °F 63.3 °F 98% 29.99 in 1.0 mi NNW 3.5 mph - N/A   Mist
12:55 AM 63.7 °F 63.0 °F 97% 29.99 in 0.8 mi Calm Calm - N/A   Overcast
1:15 AM 63.3 °F 63.0 °F 99% 29.99 in 3.0 mi Calm Calm - N/A   Overcast
1:35 AM 64.0 °F 63.5 °F 98% 29.99 in 4.0 mi North 3.5 mph - N/A   Overcast
1:55 AM 65.3 °F 64.9 °F 99% 29.99 in 3.0 mi North 3.5 mph - N/A   Overcast
2:15 AM 65.8 °F 65.3 °F 98% 29.99 in 4.0 mi Calm Calm - N/A   Overcast
2:35 AM 66.2 °F 65.5 °F 98% 29.98 in 5.0 mi NNE 4.6 mph - N/A   Overcast
3:00 AM 66.2 °F 65.1 °F 96% 29.98 in 5.0 mi North 5.8 mph - N/A   Scattered Clouds
3:15 AM 65.7 °F 64.4 °F 96% 29.98 in 5.0 mi North 4.6 mph - N/A   Mostly Cloudy
3:35 AM 65.5 °F 64.0 °F 95% 29.97 in 5.0 mi Calm Calm - N/A   Overcast
3:55 AM 65.3 °F 63.7 °F 94% 29.97 in 5.0 mi ENE 3.5 mph - N/A   Mostly Cloudy
4:15 AM 64.0 °F 63.0 °F 96% 29.98 in 4.0 mi Calm Calm - N/A   Mostly Cloudy
4:35 AM 63.9 °F 62.8 °F 96% 29.98 in 3.0 mi NNE 4.6 mph - N/A   Mostly Cloudy
4:55 AM 63.1 °F 62.2 °F 97% 29.98 in 4.0 mi North 6.9 mph - N/A   Scattered Clouds
5:15 AM 64.6 °F 63.5 °F 96% 29.99 in 5.0 mi North 5.8 mph - N/A   Mostly Cloudy
5:35 AM 64.6 °F 63.1 °F 95% 30.00 in 5.0 mi North 4.6 mph - N/A   Mostly Cloudy
5:55 AM 64.2 °F 63.0 °F 96% 29.99 in 4.0 mi NNE 6.9 mph - N/A   Mostly Cloudy
6:15 AM 64.4 °F 63.3 °F 96% 30.01 in 2.0 mi North 5.8 mph - N/A   Overcast
6:35 AM 64.2 °F 63.5 °F 98% 30.00 in 1.0 mi NE 6.9 mph - N/A   Overcast
6:55 AM 64.0 °F 63.5 °F 98% 30.03 in 0.2 mi Calm Calm - N/A Fog Fog
7:15 AM 64.0 °F 63.5 °F 98% 30.04 in 0.2 mi ENE 4.6 mph - N/A Fog Fog
7:35 AM 64.0 °F 63.5 °F 98% 30.04 in 0.2 mi Calm Calm - N/A Fog Fog
7:55 AM 64.2 °F 63.7 °F 98% 30.05 in 0.2 mi NE 3.5 mph - N/A Fog Fog
8:15 AM 64.6 °F 64.4 °F 99% 30.06 in 0.2 mi NE 4.6 mph - N/A Fog Fog
8:35 AM 64.6 °F 64.4 °F 99% 30.06 in 0.2 mi ENE 4.6 mph - N/A Fog Fog
8:55 AM 64.9 °F 64.6 °F 99% 30.06 in 0.2 mi ENE 5.8 mph - N/A Fog Fog
9:15 AM 65.5 °F 65.1 °F 99% 30.08 in 1.0 mi East 3.5 mph - N/A   Overcast
9:35 AM 65.7 °F 65.3 °F 99% 30.10 in 2.0 mi NNE 4.6 mph - N/A   Overcast
9:55 AM 65.5 °F 65.3 °F 99% 30.10 in 1.5 mi NNE 5.8 mph - N/A   Overcast
10:15 AM 66.0 °F 65.7 °F 99% 30.11 in 2.5 mi NNE 4.6 mph - N/A   Overcast
10:35 AM 66.2 °F 65.7 °F 98% 30.11 in 4.0 mi NE 3.5 mph - N/A   Overcast
10:55 AM 66.9 °F 66.4 °F 98% 30.10 in 5.0 mi ENE 8.1 mph - N/A   Overcast
11:15 AM 68.0 °F 66.7 °F 96% 30.10 in 7.0 mi ENE 6.9 mph - N/A   Overcast
11:35 AM 69.1 °F 66.7 °F 92% 30.09 in 7.0 mi ENE 9.2 mph - N/A   Overcast
11:55 AM 69.8 °F 66.9 °F 91% 30.09 in 10.0 mi ENE 10.4 mph - N/A   Overcast
12:15 PM 69.8 °F 66.9 °F 91% 30.09 in 10.0 mi ENE 5.8 mph - N/A   Overcast
12:35 PM 69.8 °F 66.9 °F 91% 30.08 in 10.0 mi East 8.1 mph - N/A   Overcast
12:55 PM 70.2 °F 67.1 °F 90% 30.05 in 10.0 mi East 10.4 mph - N/A   Overcast
1:15 PM 70.0 °F 67.1 °F 91% 30.03 in 7.0 mi East 12.7 mph - N/A   Overcast
1:35 PM 69.8 °F 67.1 °F 91% 29.96 in 5.0 mi ESE 18.4 mph 23.0 mph N/A   Overcast
1:55 PM 70.5 °F 67.3 °F 89% 29.95 in 10.0 mi ESE 17.3 mph 25.3 mph N/A   Overcast
2:15 PM 72.1 °F 67.6 °F 86% 29.95 in 10.0 mi ESE 16.1 mph 23.0 mph N/A   Overcast
2:35 PM 72.9 °F 67.5 °F 83% 29.97 in 10.0 mi ESE 11.5 mph - N/A   Overcast
2:55 PM 73.0 °F 67.8 °F 84% 30.00 in 10.0 mi SE 9.2 mph - N/A   Overcast
3:15 PM 72.7 °F 67.5 °F 84% 30.01 in 10.0 mi ESE 6.9 mph - N/A   Overcast
3:35 PM 72.1 °F 67.3 °F 85% 30.01 in 10.0 mi ESE 6.9 mph - N/A   Overcast
3:55 PM 71.8 °F 67.5 °F 86% 30.01 in 10.0 mi East 5.8 mph - N/A   Overcast
4:15 PM 71.4 °F 67.3 °F 87% 30.01 in 10.0 mi ESE 8.1 mph - N/A   Overcast
4:35 PM 70.3 °F 66.9 °F 89% 30.02 in 10.0 mi East 8.1 mph - N/A   Overcast
4:55 PM 69.4 °F 66.6 °F 91% 30.02 in 10.0 mi East 5.8 mph - N/A   Overcast
5:15 PM 68.9 °F 66.4 °F 92% 30.02 in 10.0 mi East 5.8 mph - N/A   Overcast
5:35 PM 69.3 °F 66.4 °F 91% 30.02 in 10.0 mi ENE 6.9 mph - N/A   Overcast
5:55 PM 69.1 °F 66.4 °F 91% 30.02 in 7.0 mi ENE 6.9 mph - N/A   Overcast
6:15 PM 68.5 °F 66.2 °F 92% 30.01 in 7.0 mi ENE 10.4 mph - N/A   Overcast
6:35 PM 67.8 °F 66.2 °F 95% 30.02 in 4.0 mi NE 9.2 mph - N/A   Overcast
6:55 PM 67.1 °F 65.8 °F 96% 30.03 in 3.0 mi ENE 9.2 mph - N/A   Overcast
7:15 PM 66.4 °F 65.3 °F 96% 30.03 in 3.0 mi ENE 9.2 mph - N/A   Overcast
7:35 PM 66.0 °F 64.9 °F 96% 30.03 in 2.0 mi ENE 5.8 mph - N/A   Overcast
7:55 PM 65.8 °F 64.9 °F 97% 30.03 in 2.5 mi ENE 5.8 mph - N/A   Light Drizzle
8:15 PM 65.7 °F 64.9 °F 98% 30.03 in 1.8 mi ENE 6.9 mph - N/A   Overcast
8:40 PM 65.5 °F 64.8 °F 98% 30.03 in 3.0 mi East 6.9 mph - N/A   Overcast
8:55 PM 65.5 °F 64.8 °F 98% 30.03 in 4.0 mi East 8.1 mph - N/A Rain Light Rain
9:15 PM 65.3 °F 64.6 °F 98% 30.03 in 4.0 mi East 8.1 mph - N/A   Overcast
9:35 PM 65.3 °F 64.4 °F 97% 30.03 in 4.0 mi East 8.1 mph - N/A   Overcast
9:55 PM 65.1 °F 64.4 °F 98% 30.03 in 4.0 mi East 5.8 mph - N/A   Overcast
10:15 PM 64.9 °F 64.2 °F 98% 30.04 in 3.0 mi ESE 4.6 mph - N/A   Overcast
10:35 PM 64.8 °F 64.0 °F 98% 30.04 in 2.5 mi East 6.9 mph - N/A   Overcast
10:55 PM 64.8 °F 64.2 °F 98% 30.03 in 1.5 mi East 10.4 mph - N/A   Overcast
11:15 PM 64.6 °F 64.0 °F 98% 30.03 in 1.0 mi East 6.9 mph - N/A   Overcast
11:35 PM 64.6 °F 64.0 °F 98% 30.03 in 1.2 mi East 5.8 mph - N/A   Overcast
11:55 PM 64.6 °F 64.0 °F 98% 30.02 in 1.0 mi ENE 5.8 mph - N/A   Overcast